THOR ABLESTAR DEB, 558

Orbit data source: Space-Track

THOR ABLESTAR DEB, 558 is space debris in LEO originally from a launch on Thu, 29 Jun 1961 UTC launched from the Air Force Eastern Test Range (AFETR). Debris objects in space refer to the collection of defunct objects orbiting the Earth. Examples of debris include non-operational satellites, rocket bodies, and fragments generated from explosions, collisions, or faulty payload assembly.

Loading next visibility...
Identifier
558, 1961-015GQ
Orbit
LEO
Country
Flag of USUS
Related business
Manufacturer
Unknown
Mission
Spacecraft
Bus & Motor
Unknown
Mass
Unknown
Launch date (UTC)
1961-06-29 (65 years ago)
Launch vehicle
Unknown
Launch site
Air Force Eastern Test Range (AFETR)
Object type
Payload
Rocket body
Debris
Shape & HBR
Unknown shape, 0.2 m
Radar Cross Section
Small (<0.1 m²)

Expand to show TLE details & history
Last TLE update: 9 hours ago

TLE from 9 hours ago
0 THOR ABLESTAR DEB
1 00558U 61015GQ  26105.87312623  .00000068  00000-0  33032-3 0  9995
2 00558  65.6986 290.3675 0464918 124.7796 349.1901 12.86519881 41540
Epoch: 2026-04-15T20:57Z
TLE epoch observation values (Epoch: 2026-04-15T20:57:18.106Z)
Latitude
57.20692°
Longitude
-92.18697°
Altitude
973.292 km
Speed
7.537 km/s
True Right ascension
04h 24m 40s
True Declination
57° 03' 17"
Sunlit
Object was in daylight at epoch
Visualization orbit readout
Latitude
Unknown
Longitude
Unknown
Altitude
Unknown
Speed
Unknown
Apparent Right ascension
Unknown
Apparent Declination
Unknown
Sunlit
N/A
Visualization observer readout
Local Sidereal Time
12:54:20
Azimuth
Unknown
Elevation
Unknown
Doppler factor
Unknown
Orbital elements
Apogee altitude
1,671.579 km
Perigee altitude
956.34 km
Semi-major axis
7,692.096 km
Eccentricity
0.04649
Inclination
65.6986°
RAAN
290.3675°
Arg. of periapsis
124.7796°
True anomaly
348.13064°
Mean anomaly
349.1901°
Eccentric anomaly
348.66662°
Mean motion
3.21719 °/min
Orbital period
111.9 mins
BSTAR
0.00033032
Loading maneuver chart data...
Computing Atmospheric mass density...

Documentation

Showing up to 5 results
|